RH
61 59 54 52 55 58 56 52 53 49 46 54 57 55 55 57 56 59 73 72 65 56 51 57 50 54 52 49 48 47 57 55 56 60 67 66 52 49 46 47 48 49 49 44 44 46 47 45 42 42 41 39 37 34 32 30 27 24 22 23 20 12 8 9 6 5 8 10 9 9 11 15 17 15 14 13 15 17 17 18 18 18 15 13 11 9 12 16 17 19 19 21 26 28 23 18 18
72 64 61 56 56 60 60 56 56 53 54 59 58 55 54 58 56 57 71 72 66 58 48 48 48 50 48 47 46 44 51 49 52 56 52 51 49 49 48 47 47 48 49 45 44 46 47 45 43 41 40 41 38 33 29 26 22 20 19 20 20 12 8 9 6 5 9 10 9 9 10 13 18 16 14 14 15 18 18 18 19 20 18 15 14 11 12 16 17 19 19 20 26 27 22 20 19
81 71 67 62 58 61 65 61 60 59 62 66 61 55 55 55 54 63 67 58 54 53 51 52 51 51 48 46 43 44 53 58 60 55 48 49 50 49 49 48 46 47 48 46 45 46 46 44 41 40 40 41 38 32 26 22 19 17 16 18 18 11 7 9 7 5 8 10 10 9 9 12 17 17 14 14 15 18 20 19 19 21 20 18 17 14 13 16 18 20 20 21 27 27 23 21 21
86 78 74 69 59 61 71 68 63 62 64 71 67 62 60 53 55 67 60 50 53 51 54 58 56 58 51 48 51 50 52 59 61 55 52 51 51 50 49 48 46 47 48 47 46 46 45 41 38 37 37 37 33 27 21 17 15 13 13 15 15 9 7 9 7 5 8 11 10 9 9 11 16 18 15 13 15 18 20 19 18 20 22 21 19 18 16 16 18 19 20 23 28 27 24 23 22
94 90 84 77 66 64 75 71 66 64 64 75 74 73 69 57 61 68 55 49 53 51 52 54 55 61 55 51 54 55 55 56 54 53 54 53 50 49 49 49 47 47 47 47 47 46 43 38 34 32 31 30 26 20 16 12 11 10 11 13 12 7 7 10 7 5 8 11 11 10 9 10 15 18 16 14 14 17 21 20 18 19 23 25 22 21 19 17 17 18 20 25 30 28 25 25 23
97 99 94 87 76 70 76 70 65 63 63 78 77 76 74 61 67 68 55 50 51 51 52 51 50 56 58 57 55 53 54 53 52 53 54 52 49 49 49 48 47 48 47 49 48 46 42 36 31 29 25 23 18 14 12 9 9 8 10 11 8 7 8 10 8 5 7 11 11 10 10 9 13 18 17 14 14 16 21 21 18 17 21 25 26 25 24 22 20 20 23 26 30 29 27 27 25
92 98 100 94 88 79 78 70 64 67 65 76 77 75 71 64 74 70 56 52 52 53 52 53 50 51 53 58 60 54 52 51 50 51 50 49 47 47 47 47 49 49 49 51 49 46 41 34 29 27 24 19 14 11 9 8 7 6 9 10 8 9 10 10 7 5 7 11 12 10 10 10 11 17 18 15 14 15 19 22 19 16 18 22 26 29 30 29 27 26 26 29 32 31 30 30 29
90 95 99 93 92 89 87 75 64 75 75 76 78 73 70 72 80 74 63 56 53 54 52 53 51 52 50 50 57 56 54 51 48 48 46 45 45 45 45 48 51 51 52 52 49 44 38 33 29 27 24 19 13 10 9 7 6 6 8 10 11 12 12 11 7 5 7 10 13 11 10 10 10 14 18 17 15 14 17 20 20 17 15 17 23 28 34 36 34 33 31 32 33 32 32 33 33
89 93 95 89 90 92 95 89 72 77 79 77 84 78 73 78 78 72 67 59 54 53 51 52 51 56 56 51 53 56 56 52 48 47 45 44 44 45 45 50 54 53 53 51 47 41 36 33 31 28 25 21 15 11 9 8 6 5 7 11 14 15 14 11 7 5 7 10 12 12 11 11 10 12 17 19 16 14 15 18 20 19 15 15 18 24 31 38 40 39 37 36 36 34 34 35 37
86 88 92 91 91 91 92 95 82 77 76 73 83 84 80 82 75 69 68 64 60 56 52 53 52 54 54 52 53 56 58 53 50 48 46 46 46 47 48 53 54 53 52 48 44 39 35 34 32 29 26 23 17 12 9 8 6 5 6 11 16 17 15 11 7 5 6 10 12 12 11 11 11 11 15 20 19 16 14 16 19 20 17 15 14 18 26 35 41 43 42 40 38 36 36 37 39
79 83 88 87 89 88 83 92 84 75 77 74 82 87 88 89 79 74 72 68 66 61 54 53 57 59 52 51 52 53 56 54 52 49 48 48 48 48 51 55 52 50 48 45 42 38 36 35 33 29 26 23 19 14 10 8 7 6 5 10 17 17 16 12 6 5 6 9 12 12 12 11 11 11 14 19 21 18 15 15 18 20 19 16 14 15 20 29 38 42 44 44 42 39 37 38 40
70 77 82 82 83 83 81 92 88 80 81 77 84 90 91 92 83 76 76 75 71 62 59 56 60 65 55 52 53 52 55 54 51 49 49 48 48 50 53 54 49 46 45 42 40 38 38 38 35 30 26 23 19 15 10 10 10 8 5 8 15 16 15 11 6 5 7 10 12 13 12 12 11 11 13 17 21 20 17 15 16 19 20 18 15 13 15 23 31 37 42 45 45 42 39 39 40
65 70 76 75 75 80 81 87 90 90 85 80 86 92 95 93 83 76 77 82 77 66 66 60 56 59 54 53 54 54 56 55 53 52 50 50 50 52 54 52 45 43 42 40 40 39 40 39 37 32 26 22 19 16 10 11 14 11 6 7 11 15 15 9 6 6 7 10 11 13 13 12 12 12 12 15 19 20 19 17 15 17 19 20 17 14 13 17 24 30 35 40 45 45 42 40 41
64 66 71 68 73 79 77 77 84 90 86 85 87 89 95 93 83 78 77 79 80 77 71 61 56 57 54 55 56 54 56 56 57 57 54 53 54 54 55 51 43 41 40 40 41 41 42 40 39 33 26 22 18 14 10 12 16 13 8 7 8 12 15 9 6 6 7 10 12 13 13 13 12 12 12 13 17 19 20 18 16 16 18 20 18 15 13 13 17 22 27 34 41 44 43 41 41
66 66 67 64 71 76 77 76 77 86 86 85 83 83 86 85 81 78 78 76 79 81 70 63 62 61 58 59 61 59 62 63 62 61 59 58 57 58 55 49 43 42 42 41 42 42 42 41 40 34 25 21 16 12 9 12 16 17 13 8 9 13 15 10 6 6 8 10 12 13 13 14 13 13 13 13 16 20 21 21 19 17 17 19 20 18 15 14 14 16 21 28 37 42 41 40 38
67 71 68 61 59 60 72 77 75 85 87 82 78 82 85 82 80 76 78 77 77 74 67 72 69 63 62 60 63 66 70 74 73 70 67 66 63 60 53 47 44 43 42 42 42 42 42 42 41 34 25 18 13 8 7 11 12 20 23 11 10 17 17 12 7 7 8 10 12 13 14 14 13 13 13 13 16 20 22 21 20 18 17 18 20 20 17 16 14 13 14 20 32 38 37 36 32
67 71 64 57 54 50 57 64 73 83 82 82 80 84 89 83 80 77 76 73 76 75 70 76 71 66 66 59 60 68 72 73 74 73 73 74 69 59 50 47 46 44 42 43 43 44 43 43 40 32 23 15 11 13 18 20 19 29 36 18 10 20 23 17 11 8 7 10 12 14 15 15 15 13 13 14 15 18 21 21 20 20 19 18 20 21 20 18 15 13 11 13 24 31 31 29 26
62 61 55 53 53 51 49 49 69 81 80 83 82 87 86 74 77 79 75 71 75 82 76 74 73 72 69 61 63 68 70 70 73 76 77 77 67 55 51 50 47 43 43 44 44 45 44 42 39 29 19 12 18 33 41 43 43 47 41 17 10 21 29 27 21 15 10 9 11 13 15 16 16 14 14 14 15 17 19 21 21 20 20 19 19 20 21 20 17 14 11 11 17 24 23 21 20
54 51 50 50 48 50 49 47 58 71 79 82 77 86 80 63 72 79 78 76 74 78 75 72 76 76 69 62 64 67 67 69 76 79 77 72 61 55 53 50 45 43 43 44 45 45 44 41 35 26 16 13 27 40 40 41 41 38 26 11 13 24 34 39 37 30 21 14 11 13 15 16 17 16 16 16 16 16 17 20 20 22 22 21 20 20 21 21 20 17 13 12 16 20 19 19 19
47 47 46 43 46 48 48 49 50 57 75 83 74 80 77 61 66 76 80 76 70 73 75 74 73 72 71 66 60 61 61 64 74 77 73 65 58 55 51 48 44 44 44 44 45 44 42 39 31 22 14 12 27 33 23 20 20 16 12 10 16 25 38 47 50 47 38 26 16 14 15 16 18 18 20 19 20 23 23 25 26 25 23 23 22 20 21 21 21 19 15 14 15 19 20 20 21
42 43 38 35 44 47 46 48 46 50 67 79 78 79 80 67 59 71 78 69 65 72 80 80 75 73 75 71 59 55 58 61 67 69 65 59 53 50 47 46 45 44 45 45 44 43 40 35 27 20 14 10 18 27 24 23 21 14 10 14 20 29 42 53 59 60 54 40 25 18 16 17 17 18 21 19 28 45 42 37 37 33 31 31 26 23 24 23 21 21 21 18 17 21 23 20 19
41 39 31 32 43 44 45 46 44 48 53 64 80 83 84 78 58 62 75 68 64 72 78 75 76 80 75 72 64 58 60 62 63 61 54 48 45 45 45 45 45 45 45 45 43 41 37 30 24 18 14 10 8 15 23 29 28 17 8 16 29 36 45 58 67 69 66 53 35 25 20 19 17 18 26 30 40 53 47 44 43 35 37 35 29 28 26 23 22 23 23 19 17 19 18 16 15
42 35 26 28 37 41 44 45 45 47 44 49 73 82 82 82 61 53 65 64 65 74 80 72 71 76 70 70 68 62 63 62 62 59 52 49 47 45 44 44 44 45 44 43 42 39 34 27 23 18 13 10 6 5 9 14 15 12 7 14 33 43 50 63 70 70 69 60 44 33 27 24 20 18 25 31 32 30 27 31 29 24 28 29 29 29 27 28 25 24 24 20 19 22 24 20 16
37 28 20 23 31 40 43 46 49 49 44 43 68 86 75 66 56 51 55 57 60 71 80 73 66 66 65 66 63 59 61 61 62 60 57 54 50 46 43 43 43 43 43 42 40 36 31 25 21 17 11 8 6 5 5 5 7 8 6 10 31 47 54 64 67 64 65 61 51 41 35 30 26 21 20 21 20 19 19 20 20 22 25 27 30 30 32 35 32 35 36 34 36 42 49 42 24
26 18 15 22 31 39 40 43 49 51 52 48 67 89 69 47 49 51 50 50 52 58 68 66 60 63 64 61 56 56 56 57 58 57 56 52 47 45 42 43 43 42 42 40 39 35 29 24 20 15 9 7 5 5 6 6 7 7 6 8 25 45 56 64 63 61 63 62 56 48 41 34 28 25 24 23 23 23 22 20 22 26 28 30 33 32 35 37 37 40 38 42 47 43 48 43 27
16 11 13 22 30 40 45 43 44 47 52 51 55 66 54 40 46 49 48 48 45 46 55 54 52 59 62 60 55 55 55 54 54 50 49 47 44 42 41 41 41 41 41 39 38 33 27 23 18 13 8 6 6 7 7 8 9 7 7 8 17 38 57 63 62 62 62 61 58 48 39 34 30 29 29 27 25 24 23 24 26 28 30 32 34 38 44 47 46 42 33 36 40 32 32 30 24
16 12 13 19 26 39 50 43 39 44 48 51 47 41 41 42 43 45 46 47 42 44 53 50 46 51 54 57 56 55 56 54 51 46 42 41 40 39 38 40 40 40 39 39 37 31 26 21 16 11 7 6 7 8 8 8 9 8 8 9 16 38 57 63 64 63 64 63 57 48 39 35 35 33 31 29 30 30 28 29 30 30 33 35 43 52 59 66 64 55 42 33 30 26 26 26 26
19 17 14 16 19 30 45 42 36 41 45 47 45 36 38 44 41 40 44 45 42 46 53 49 45 49 50 51 53 54 53 51 49 44 39 38 37 38 38 39 40 40 39 39 36 29 23 19 14 10 6 7 8 8 8 7 8 9 9 9 20 44 60 66 67 65 66 64 57 54 49 44 46 47 45 43 40 38 35 34 36 36 40 47 58 67 73 78 80 75 60 42 31 25 24 28 30
22 21 17 15 14 16 32 39 30 31 40 43 43 39 36 38 33 33 42 45 42 43 47 46 45 49 51 48 48 50 49 45 43 40 39 38 38 39 40 40 40 39 39 38 33 25 20 16 12 8 7 7 8 8 7 6 7 9 10 13 27 48 64 71 70 67 68 65 59 57 53 55 65 66 59 54 49 47 44 41 44 48 54 63 71 78 82 83 87 90 77 55 38 28 28 31 32
22 22 21 17 15 11 18 29 22 20 33 39 45 40 25 22 26 33 43 42 40 42 42 45 45 45 49 49 45 47 48 43 40 40 40 40 40 40 41 40 40 38 38 36 28 21 17 13 9 7 8 8 8 7 5 5 6 8 14 23 36 54 71 77 71 67 67 64 57 53 58 69 75 70 63 61 58 53 48 47 54 62 68 76 82 84 84 84 87 89 75 55 40 32 34 36 35
21 23 24 21 19 14 11 17 16 15 22 29 39 33 11 9 21 33 40 38 38 39 39 43 45 44 46 47 45 44 45 43 41 42 41 41 42 42 41 40 40 38 36 31 23 18 13 10 9 8 8 8 7 6 5 4 4 8 16 28 42 59 75 77 70 67 66 61 52 54 69 78 74 70 70 68 63 55 51 56 66 74 78 82 84 82 81 83 86 80 62 46 39 37 38 36 33
18 22 25 23 19 17 15 13 11 12 15 21 29 21 5 5 16 29 36 34 34 35 37 42 41 43 43 42 44 43 44 45 43 43 43 43 43 41 41 39 38 36 33 26 18 14 11 9 9 8 8 8 7 4 4 3 3 7 16 29 44 62 77 77 72 68 61 55 53 61 73 76 74 76 76 71 66 60 55 60 69 77 81 82 81 80 81 85 88 77 54 41 37 35 33 29 26
17 18 21 21 19 18 19 16 11 11 13 17 17 10 3 6 15 28 33 27 26 27 31 39 39 38 42 42 43 43 44 44 44 44 44 43 43 41 39 38 36 34 28 21 15 11 9 9 9 9 8 6 4 3 3 3 3 6 13 29 48 69 81 77 72 66 55 52 59 71 79 81 82 80 78 76 70 65 59 60 66 73 79 82 81 82 85 89 90 75 50 39 37 32 29 26 26
21 16 16 16 18 19 20 20 17 13 13 14 10 7 5 6 12 22 29 27 19 17 21 31 36 34 37 41 40 41 42 42 43 43 43 42 41 39 37 35 33 29 22 16 12 10 9 10 9 7 6 4 4 3 2 2 3 8 15 30 53 74 81 73 65 56 48 56 68 73 77 81 83 80 78 77 73 69 64 62 67 73 77 81 82 86 91 90 84 72 57 48 42 35 32 33 36
29 21 16 13 15 19 20 21 23 18 14 14 10 8 8 6 9 14 27 32 18 11 16 22 30 32 33 37 36 37 38 38 40 39 38 39 36 34 32 30 27 22 17 12 10 9 9 10 8 5 3 2 3 1 4 5 3 8 15 27 48 66 71 63 49 40 47 68 75 69 69 75 77 77 76 77 78 75 68 66 71 75 78 80 83 90 96 91 76 64 55 46 37 34 36 40 44
34 26 19 16 14 18 21 23 31 28 17 16 15 10 10 8 8 12 22 27 15 13 23 22 25 30 27 34 39 35 32 32 33 33 32 31 29 27 25 22 19 15 12 10 9 10 10 9 6 3 3 3 2 6 13 10 9 18 17 20 39 52 52 44 33 36 58 77 80 74 75 78 77 76 76 76 80 80 73 71 74 77 79 81 87 95 97 86 66 49 39 34 32 36 42 47 49
40 41 32 22 17 18 22 23 32 38 24 14 16 14 14 11 8 13 18 18 13 17 29 27 26 27 22 32 39 29 27 28 25 25 24 22 20 19 18 15 13 12 10 10 9 9 8 6 4 3 2 3 5 13 22 19 27 39 27 18 31 37 31 31 37 53 71 80 83 82 80 79 79 80 77 72 76 82 78 74 77 81 82 84 92 98 92 73 53 40 35 37 41 47 51 53 50
49 53 45 35 24 15 20 27 30 37 30 16 17 17 16 15 10 13 17 15 14 16 23 24 24 24 21 27 30 24 23 23 18 19 18 15 15 14 13 12 11 11 9 9 9 9 8 4 3 4 2 6 14 23 26 22 30 37 25 26 46 52 47 52 66 76 80 83 87 86 80 80 84 86 77 66 71 82 80 78 82 84 85 89 96 98 87 68 52 44 45 49 54 55 52 50 47
52 50 59 68 57 33 25 35 40 39 32 19 17 19 17 17 15 15 17 12 10 12 12 13 15 14 14 18 20 21 20 16 12 15 14 12 12 10 10 10 9 10 8 9 9 6 5 4 3 5 5 10 19 22 21 21 29 34 32 45 66 71 70 78 88 87 84 85 86 83 80 85 89 86 75 65 70 81 83 84 87 89 92 97 100 98 90 77 65 59 59 59 57 54 50 48 47
47 52 80 91 83 74 47 38 54 51 33 22 19 19 18 19 18 17 18 12 8 10 8 6 8 7 9 12 13 14 13 12 11 11 10 9 9 8 8 9 8 9 7 9 12 11 13 13 8 7 8 15 20 17 22 34 45 50 54 64 77 79 79 90 95 87 83 85 84 80 80 87 89 81 72 68 73 82 87 89 92 94 97 98 99 98 92 82 74 70 68 64 58 56 53 50 46
47 58 83 78 75 90 63 43 65 58 31 23 25 26 21 18 21 18 17 17 11 11 12 8 6 5 8 8 8 10 8 8 8 7 7 6 6 7 7 7 7 7 6 9 19 33 45 41 29 23 21 31 39 34 42 59 64 66 71 77 82 83 87 95 91 82 81 83 82 81 82 85 85 81 76 76 81 86 90 93 94 96 96 97 97 97 91 83 78 74 67 61 58 56 51 44 35
46 52 70 68 69 86 72 62 81 73 40 21 23 34 29 15 18 20 18 18 13 11 14 11 8 7 8 7 7 8 6 7 6 4 5 5 5 6 5 5 6 6 5 7 14 31 54 60 49 36 30 39 47 45 56 75 80 79 80 84 85 87 94 96 88 82 82 83 85 86 85 84 84 84 82 83 88 92 95 98 95 93 93 94 96 97 93 87 79 68 60 57 55 51 43 32 23
48 55 65 65 73 88 84 77 91 85 43 17 18 22 27 25 21 20 20 20 15 12 13 12 12 10 6 6 6 6 5 7 7 3 3 4 4 5 4 3 5 6 5 5 5 10 33 57 57 46 45 48 42 42 60 77 83 79 77 83 87 88 93 93 90 88 84 85 89 90 89 87 86 88 89 91 93 94 97 98 93 92 93 95 98 96 87 77 67 60 58 56 50 40 29 20 17
47 59 62 55 71 95 92 77 88 89 52 42 44 16 21 48 37 17 17 20 17 14 14 11 11 11 9 8 6 5 6 6 6 5 3 4 4 3 3 4 5 6 4 4 5 3 12 36 51 56 65 66 54 54 68 75 77 79 80 83 82 79 79 82 85 86 83 85 89 88 90 93 93 92 93 95 96 96 97 96 94 97 99 96 93 83 72 64 59 59 57 49 37 26 19 17 18
44 65 74 55 62 86 93 81 81 89 75 74 67 21 15 48 45 22 16 19 19 15 15 13 9 9 12 11 6 4 6 5 5 7 5 3 4 3 3 5 6 6 5 4 5 5 6 15 29 42 52 58 61 66 72 73 72 76 81 80 74 69 67 71 75 77 84 90 91 91 93 95 95 94 95 97 95 93 95 97 99 101 98 89 78 68 62 59 59 57 48 35 24 19 18 20 21
51 85 99 75 71 77 87 93 81 81 86 81 71 37 10 21 37 33 20 14 17 17 15 16 13 12 11 8 6 6 6 6 5 5 5 3 4 3 3 6 6 4 4 5 4 5 6 7 11 21 30 38 53 62 62 63 63 68 73 71 65 60 61 70 73 73 83 91 93 95 97 98 96 93 95 96 93 93 96 100 99 98 91 77 65 59 57 58 57 48 34 23 20 20 22 23 24
57 95 105 96 93 74 76 95 79 73 87 77 71 59 21 5 23 31 20 11 13 17 17 18 15 13 12 7 6 6 5 8 8 4 4 4 3 4 4 6 6 4 4 4 5 4 5 6 8 14 19 23 39 54 55 52 53 59 62 59 57 59 63 71 71 72 81 88 89 91 96 99 95 91 93 95 97 96 96 97 93 88 79 64 57 56 58 58 49 35 24 20 22 23 24 25 25
72 94 98 104 99 81 86 95 80 82 94 72 61 69 42 11 13 18 17 13 11 15 18 18 16 11 11 10 8 7 6 10 11 5 4 5 3 4 4 5 5 4 5 4 5 6 5 7 9 11 12 17 35 54 57 53 52 55 56 55 58 63 68 69 69 77 87 92 93 92 97 101 94 89 92 92 93 90 88 92 90 81 68 57 55 58 57 50 35 24 22 22 24 25 26 27 27
86 83 92 107 100 99 98 87 85 91 88 63 51 66 55 22 9 13 24 22 9 12 20 20 19 12 9 12 10 8 8 12 10 5 5 5 3 4 4 6 6 4 6 5 5 6 6 7 9 8 10 23 44 58 60 59 57 53 50 49 52 59 64 65 69 79 87 90 90 88 94 100 92 88 89 88 90 92 94 99 91 73 60 55 58 60 51 38 26 22 24 25 26 27 27 28 27
85 79 96 106 97 105 95 83 93 77 59 60 61 71 63 31 10 10 35 44 14 5 19 21 19 14 9 12 12 10 10 10 8 4 5 5 3 5 5 5 6 5 5 6 6 7 7 7 8 10 15 27 44 57 61 60 55 46 38 39 49 59 64 62 62 71 82 87 85 80 83 88 85 85 88 88 93 97 98 96 82 64 57 58 60 56 41 28 23 24 26 27 27 28 29 30 28
69 80 100 104 97 98 83 76 76 44 38 65 80 82 59 30 21 14 33 55 28 8 18 19 17 15 10 12 14 15 13 8 7 6 5 6 4 4 5 6 6 6 6 6 7 8 7 7 10 15 21 28 38 51 56 52 46 39 38 45 55 61 62 59 57 65 80 90 87 78 74 77 81 84 86 85 91 97 97 89 72 59 59 62 59 46 31 24 25 27 28 28 29 29 30 31 29
66 88 102 101 98 91 78 72 63 52 65 81 85 79 42 21 34 26 25 38 23 11 19 20 18 14 11 13 14 15 14 9 9 8 6 6 5 4 5 6 6 6 6 6 7 8 8 8 12 19 22 26 35 45 46 41 39 42 48 54 55 55 54 55 57 62 72 85 86 75 68 72 80 86 83 81 90 101 98 83 66 60 63 62 51 35 25 25 28 29 30 30 30 30 31 31 31
71 95 104 99 97 91 86 82 70 74 92 87 72 61 43 38 41 28 25 28 16 11 19 20 18 14 12 13 13 14 14 11 9 8 8 9 6 4 5 6 6 6 6 7 7 8 8 9 14 21 23 25 33 38 36 34 39 48 53 53 52 50 49 49 53 56 63 79 85 73 67 73 82 87 84 84 95 101 92 77 65 63 64 56 39 27 24 28 30 31 32 31 30 31 30 31 32
75 87 98 98 99 91 87 84 71 72 87 85 62 47 56 64 45 25 28 29 19 14 17 21 18 14 14 13 13 14 13 13 11 7 10 10 6 5 6 6 6 6 6 7 7 7 8 9 15 23 25 25 28 29 28 30 40 49 51 51 51 50 51 52 56 61 67 79 83 74 72 78 85 88 88 93 99 94 82 71 64 62 59 45 30 24 27 32 33 33 32 31 30 30 30 32 33
85 84 91 95 99 97 95 92 78 70 77 79 63 48 55 60 41 27 27 25 22 18 18 23 18 12 13 12 13 14 12 14 12 7 7 8 5 5 6 6 6 7 6 6 7 7 7 8 12 21 24 24 23 22 24 31 39 44 45 47 48 50 57 61 63 65 67 75 83 82 79 79 82 87 90 93 90 81 72 65 62 59 49 34 25 26 32 34 34 33 31 31 31 31 32 32 34
95 92 93 93 97 100 96 86 72 68 73 77 74 58 45 43 36 29 29 24 24 25 23 22 17 13 13 12 12 13 14 14 10 8 7 6 6 6 6 6 6 6 7 7 7 8 9 9 10 16 20 22 22 20 23 32 38 39 42 45 46 50 59 63 65 63 61 70 83 83 76 75 80 86 87 85 78 70 65 61 57 51 38 26 25 30 35 35 33 32 31 32 34 35 34 34 35
96 98 100 95 95 95 89 80 72 77 82 83 93 81 46 32 32 31 34 33 31 33 27 20 17 13 10 12 13 13 15 14 10 12 12 7 5 7 6 7 7 7 7 7 7 8 9 9 10 14 19 22 23 21 25 34 37 38 43 47 48 50 54 59 66 67 60 61 67 67 69 75 82 85 81 75 69 62 58 55 50 42 29 24 27 32 35 34 32 32 32 34 37 38 37 36 37
87 89 97 97 92 85 88 93 85 85 85 79 92 94 58 33 32 32 35 41 42 39 29 20 17 13 10 14 17 15 14 14 11 13 14 7 5 7 7 7 7 7 8 8 10 11 11 12 14 16 20 25 25 24 30 36 37 40 44 47 48 51 53 58 67 68 56 48 53 59 69 79 83 80 72 66 61 56 53 49 43 33 25 25 30 34 34 33 32 34 34 37 40 41 40 39 39
Wind_Speed
48 46 45 44 44 38 36 35 28 23 19 13 10 16 19 21 16 6 9 13 16 23 24 22 21 20 19 19 20 20 19 18 14 11 8 9 12 12 13 13 13 13 15 16 16 17 17 18 18 19 19 20 21 21 21 22 23 24 24 23 22 20 17 14 11 8 5 4 4 5 6 6 6 6 7 8 9 9 10 10 10 9 9 8 7 6 6 5 5 4 4 4 3 3 3 2 2
52 48 46 46 44 40 39 37 29 25 18 12 11 13 19 19 15 12 16 21 21 20 23 25 23 23 20 19 21 20 18 17 16 13 10 12 14 14 15 15 15 15 15 15 15 16 17 18 19 19 20 21 22 22 23 23 24 25 24 23 22 20 17 14 11 8 5 4 3 4 4 5 5 5 6 7 8 9 9 9 9 9 9 8 7 6 6 5 5 4 4 3 3 2 1 1 2
49 48 46 48 46 44 43 38 31 25 18 14 12 14 16 9 13 20 23 27 25 22 23 25 23 23 22 22 23 21 17 15 16 14 13 14 16 17 17 17 17 16 15 15 15 15 16 18 18 19 20 21 22 23 24 24 25 25 25 23 22 20 16 13 11 8 4 3 3 3 4 4 4 4 5 7 8 9 9 9 9 9 9 8 7 6 5 5 4 4 3 3 2 1 0 0 2
43 48 47 48 49 46 43 42 36 30 23 16 15 17 12 9 15 21 26 27 23 25 26 25 23 22 23 23 22 22 19 15 16 15 16 16 18 19 19 20 19 17 16 15 15 15 16 17 18 18 20 21 22 24 25 25 25 25 24 23 21 20 15 13 11 8 5 3 3 3 3 4 4 4 5 6 7 8 9 10 10 10 9 8 7 6 5 4 3 3 2 2 1 1 1 1 2
35 44 49 47 47 47 47 48 42 36 27 15 15 15 10 13 17 20 27 27 25 27 26 27 25 22 23 22 22 21 17 15 16 17 17 17 19 20 21 22 20 18 17 16 16 15 16 17 17 18 19 21 22 23 24 25 25 25 24 22 20 18 14 12 11 8 5 4 3 3 3 4 4 4 4 5 6 7 8 10 10 10 9 9 8 7 6 5 4 2 1 1 1 1 1 2 2
30 34 44 47 46 48 52 53 47 44 33 18 15 13 11 15 16 20 27 28 29 28 25 28 27 24 23 23 23 22 19 17 18 19 19 19 20 21 22 22 21 19 17 17 15 15 15 16 16 17 18 20 21 22 24 24 25 24 23 21 18 16 13 11 11 8 6 4 4 3 3 4 4 4 4 5 6 7 8 9 10 10 10 9 9 8 7 6 4 3 1 1 1 1 2 2 3
33 29 32 41 46 50 55 55 50 47 35 23 18 11 12 17 16 18 24 25 25 27 28 30 28 24 25 25 23 22 22 21 21 22 22 21 21 22 23 23 22 19 18 17 15 15 15 16 16 17 18 19 20 21 23 24 24 23 21 19 16 14 13 11 11 8 6 5 4 4 4 5 4 4 4 5 6 6 7 9 10 10 10 9 9 8 7 7 5 4 3 2 1 1 2 3 4
36 31 29 35 38 43 51 57 56 48 31 19 18 15 15 19 17 16 20 24 25 30 33 33 29 24 27 29 23 21 22 22 23 23 23 22 22 23 23 23 22 20 18 17 14 14 15 15 17 17 19 19 20 21 23 23 23 23 20 17 15 14 13 11 11 9 6 6 5 4 4 5 5 5 5 6 6 6 7 8 9 10 10 9 9 8 7 7 6 5 4 3 2 2 3 4 5
38 33 34 36 31 31 37 51 59 52 36 20 16 22 24 19 16 18 21 24 30 33 34 36 31 24 27 30 26 23 23 23 23 23 23 22 22 22 22 24 22 19 17 15 13 13 15 16 18 18 19 19 20 21 23 23 23 22 19 16 14 15 14 11 11 9 7 7 6 5 5 6 6 6 6 6 6 6 6 7 9 10 10 10 9 8 7 6 6 6 5 5 4 3 3 4 5
40 37 37 37 33 31 29 42 58 56 46 29 15 20 25 20 18 22 21 21 27 31 36 37 30 28 31 31 27 23 24 24 24 23 23 22 22 22 22 23 20 17 15 14 14 13 14 17 19 19 19 20 21 22 23 23 23 22 19 15 14 15 14 12 11 10 8 8 8 7 6 7 7 7 7 7 7 7 6 7 8 9 10 10 9 8 7 6 6 6 6 6 5 5 4 5 6
42 40 39 39 36 36 32 36 54 58 52 36 18 21 22 18 23 29 27 23 27 31 36 33 24 29 33 34 30 24 26 24 23 23 22 22 22 22 21 21 19 16 15 14 15 14 15 17 20 20 20 21 22 22 23 23 22 22 19 15 14 15 15 13 12 11 9 9 9 8 7 8 8 7 8 8 7 7 7 7 7 8 9 10 10 9 8 7 7 6 7 7 7 6 6 6 7
43 42 41 42 39 39 35 28 38 48 53 44 23 21 21 16 24 34 34 30 33 34 32 31 28 28 29 33 32 27 28 26 24 23 22 23 22 22 21 20 18 16 15 15 15 16 16 18 20 21 21 22 23 23 23 23 22 21 18 15 14 15 15 14 13 12 11 11 11 9 8 9 9 8 8 8 8 8 7 7 7 8 9 10 10 10 9 8 8 7 7 7 7 7 7 7 7
45 44 43 45 43 40 38 30 25 29 44 51 33 23 23 21 24 31 34 36 43 35 26 35 39 32 30 32 30 28 28 26 25 24 23 23 22 22 22 21 19 17 16 15 16 17 18 19 21 23 23 23 23 23 23 22 21 20 18 15 14 15 15 14 14 13 13 12 12 11 10 10 10 9 9 9 8 8 8 7 8 8 9 9 10 10 10 9 9 9 8 8 8 8 8 8 8
48 46 45 46 44 40 40 38 31 23 28 38 36 29 27 25 29 34 37 43 44 34 33 44 41 31 32 34 31 31 28 27 25 24 25 24 25 24 23 22 20 19 17 16 17 18 19 20 23 25 25 25 24 24 22 22 21 19 17 15 14 15 15 15 14 14 14 13 13 12 11 11 11 10 10 9 9 9 8 8 8 9 9 9 10 10 10 10 10 10 10 9 9 9 9 8 8
50 48 48 49 46 39 37 38 37 31 23 25 29 32 34 34 38 41 43 45 36 35 48 50 40 31 32 34 33 31 27 28 27 26 27 26 26 25 24 23 21 20 18 18 17 19 21 22 25 27 27 26 25 24 22 21 21 20 17 15 14 15 15 15 15 15 16 15 15 14 12 12 12 11 11 11 9 9 9 9 9 9 10 10 10 10 11 11 11 11 11 11 10 10 10 9 9
52 51 52 53 50 45 39 37 38 34 26 24 26 28 36 43 47 45 44 47 40 44 52 45 42 38 36 37 34 31 28 31 31 31 30 28 28 26 25 23 21 21 19 19 19 21 22 24 26 28 29 27 24 23 22 22 22 21 19 17 16 16 15 15 16 16 17 16 16 15 13 13 12 12 12 12 11 10 10 9 10 10 11 11 11 11 11 12 11 11 12 12 11 10 10 10 10
55 56 56 56 54 52 50 45 35 31 28 27 28 26 28 36 45 46 46 52 48 50 52 43 45 42 40 41 37 36 35 36 37 36 35 32 30 27 24 23 22 21 20 20 21 22 24 26 28 30 30 26 24 23 24 24 23 21 19 18 17 16 16 16 17 17 18 18 17 16 15 14 14 13 12 12 12 11 11 10 10 11 11 11 11 11 12 12 12 12 12 12 11 11 10 11 11
60 61 59 60 58 56 56 51 38 30 29 28 30 29 29 31 35 42 47 51 45 45 53 48 46 43 43 43 41 41 39 38 36 35 34 31 29 26 24 23 22 21 21 21 22 24 25 27 29 31 29 23 22 22 22 20 19 18 17 17 17 17 16 16 17 18 19 19 18 17 16 16 15 13 13 13 13 13 12 11 11 12 12 12 12 11 11 12 12 12 11 11 11 11 11 11 11
65 63 62 63 62 59 55 51 46 40 30 27 28 28 36 37 34 35 37 43 42 40 49 51 46 46 46 44 44 43 37 32 29 28 27 27 26 25 24 23 22 22 22 23 24 25 27 29 31 31 27 21 19 18 15 12 11 13 14 16 16 17 17 18 18 19 20 20 19 19 18 17 16 15 14 14 14 14 14 13 12 13 13 13 12 12 12 12 12 12 11 11 11 11 11 11 11
67 66 67 65 62 59 56 52 52 49 35 26 27 30 40 41 41 39 33 36 39 34 36 41 41 42 42 39 38 37 32 28 25 25 25 25 26 25 24 22 23 23 23 24 25 27 28 30 32 30 25 20 16 14 12 11 11 13 15 17 17 18 18 19 20 20 21 20 20 20 19 19 18 16 15 15 15 14 14 14 13 14 15 14 14 13 13 13 12 12 12 12 12 12 11 11 11
69 69 68 65 63 60 59 56 53 52 43 32 27 30 35 37 44 47 42 40 38 32 27 28 30 34 37 34 33 33 30 27 25 25 25 26 26 25 24 22 23 23 24 25 26 28 29 32 32 29 25 21 18 15 13 13 15 18 20 20 19 18 19 20 21 21 22 21 21 21 20 20 19 18 17 16 15 15 15 14 14 14 15 15 15 15 14 14 14 13 12 12 13 12 12 11 12
71 71 68 64 64 63 61 58 56 54 52 43 30 30 30 30 39 43 45 44 39 31 22 22 24 28 35 34 34 34 31 29 27 27 27 28 27 26 24 23 24 25 26 25 26 29 30 32 31 28 26 23 21 20 19 20 21 21 22 23 21 19 20 21 21 22 22 21 21 21 21 20 20 19 18 17 16 15 15 15 15 14 14 15 16 16 16 16 16 15 13 13 13 13 13 13 13
74 72 68 66 65 65 63 59 58 56 57 51 35 34 36 34 40 41 42 44 40 31 23 27 29 28 32 32 33 33 31 31 30 29 29 29 29 27 25 24 26 26 27 27 28 30 31 32 30 28 27 25 23 22 23 25 26 23 22 24 22 20 20 21 21 21 21 21 21 21 21 20 20 21 19 18 18 17 17 17 16 15 15 16 16 17 18 18 18 17 15 14 14 14 15 15 15
76 73 68 67 66 66 65 59 58 57 58 54 39 35 42 47 47 44 44 44 41 35 32 39 40 36 31 28 32 31 31 32 31 31 31 31 30 27 26 26 28 28 28 28 29 30 31 31 30 28 27 26 24 23 23 24 25 24 22 24 24 21 20 21 20 20 21 21 21 21 21 20 20 21 20 20 19 18 18 19 18 17 17 17 17 17 18 19 18 18 16 15 15 14 16 16 16
76 73 68 67 68 68 67 63 61 57 56 56 46 36 44 51 47 47 47 44 42 35 39 48 44 41 36 32 33 32 33 33 32 33 32 32 30 28 28 28 29 30 29 30 31 31 32 32 31 29 27 26 25 24 24 23 24 24 23 24 25 23 21 21 21 21 21 21 21 21 20 20 20 20 20 19 19 19 19 20 19 19 19 18 18 18 18 20 19 19 19 17 16 16 17 17 17
74 72 69 69 71 69 67 68 66 61 58 60 59 52 53 52 48 52 48 45 45 35 42 51 41 39 39 37 36 35 35 35 34 35 34 34 31 29 29 29 31 31 31 32 32 31 32 33 31 29 28 26 25 25 25 25 25 25 25 25 26 25 23 22 22 21 21 20 20 20 20 19 19 19 19 20 19 19 20 20 20 20 20 20 20 20 20 20 20 21 21 20 18 18 19 19 19
73 71 71 71 73 70 69 73 69 64 63 63 68 67 61 56 54 56 49 49 48 38 48 52 39 39 40 38 38 37 37 37 37 36 35 34 30 29 30 30 32 32 33 33 33 32 33 34 32 30 29 26 26 26 26 27 27 27 27 27 27 26 24 23 23 23 22 21 20 20 20 19 19 19 20 21 20 20 20 20 21 21 21 21 21 21 20 20 21 22 22 22 21 21 21 21 20
73 71 72 74 76 74 72 75 71 68 69 67 70 69 62 59 60 56 50 54 50 45 53 50 40 41 39 38 39 38 39 38 38 37 36 34 31 31 31 32 33 35 35 34 33 33 34 35 33 30 29 27 27 28 28 29 29 29 29 29 28 27 25 24 23 24 23 21 21 20 20 20 19 20 21 21 20 20 20 20 20 21 21 21 21 21 20 20 20 22 22 22 23 22 22 21 21
73 72 74 76 77 76 73 75 75 71 71 69 70 70 64 62 62 56 52 57 54 52 55 47 42 42 39 39 39 39 41 40 39 38 37 35 33 32 33 34 36 37 37 36 34 33 35 35 32 30 28 28 29 29 30 30 31 31 31 29 28 27 25 24 24 25 24 22 22 22 21 21 21 21 22 21 20 20 20 20 20 20 21 21 20 20 20 20 20 20 21 22 22 22 22 22 22
74 73 75 75 76 75 72 75 76 71 70 71 71 72 65 61 60 57 56 58 57 57 54 47 45 43 41 41 40 40 41 41 40 39 38 37 35 35 36 36 37 39 38 36 34 34 36 34 32 30 29 30 30 30 31 31 32 32 31 30 28 27 25 24 25 26 25 23 23 23 23 22 22 22 21 21 20 19 19 18 18 19 19 19 19 19 19 19 19 19 20 20 21 21 22 22 22
76 74 74 75 76 73 70 75 77 71 71 72 73 72 63 57 58 57 60 60 58 59 55 49 48 46 44 42 41 42 41 42 41 40 40 38 38 38 38 38 39 41 39 35 35 36 36 34 32 31 30 31 31 32 33 33 33 32 30 29 27 26 25 25 26 26 24 24 25 25 24 24 23 22 21 20 19 18 17 17 17 18 18 19 19 19 19 19 19 19 18 19 20 21 21 22 22
77 75 75 77 75 70 69 75 76 72 71 72 73 71 59 55 57 57 62 63 60 60 54 50 52 49 47 46 44 44 43 43 43 42 42 40 40 41 40 41 42 42 39 35 36 37 36 33 32 31 31 31 32 33 33 33 32 31 30 28 27 27 27 27 26 25 24 25 26 26 25 24 22 21 20 20 19 18 17 17 17 17 17 18 19 20 19 19 18 18 18 18 19 19 20 20 20
77 77 77 78 74 69 69 74 75 71 71 73 72 67 59 56 57 59 62 63 61 61 55 52 55 52 49 50 48 47 47 46 45 44 44 43 43 43 42 43 43 42 38 36 37 37 35 34 33 31 31 32 33 33 33 32 31 30 29 27 27 28 27 27 26 26 26 26 27 26 22 20 20 21 21 20 20 19 18 17 17 17 17 18 19 19 18 18 17 17 17 17 18 19 19 19 19
76 77 76 76 74 70 70 71 73 73 71 71 71 66 62 59 57 59 60 62 64 61 56 53 55 54 51 51 50 49 49 48 47 47 45 45 45 44 44 44 44 41 37 37 38 36 35 34 33 31 32 32 32 32 32 31 30 29 28 27 28 28 27 27 26 27 27 27 27 24 21 21 23 23 21 21 21 21 19 18 17 17 17 17 18 18 17 17 17 17 17 17 18 19 19 19 20
74 75 74 74 74 72 71 69 70 74 71 69 71 68 64 60 58 58 57 62 64 58 53 53 54 55 52 52 53 51 51 50 49 48 47 47 46 45 44 44 43 39 38 38 37 36 35 34 32 31 32 32 31 32 31 29 29 28 28 28 28 28 28 28 28 27 27 27 26 25 24 25 26 23 22 22 22 21 20 18 17 17 17 17 17 17 17 17 17 17 17 16 17 18 19 20 21
71 73 73 72 74 73 71 69 65 70 72 68 69 69 65 61 59 57 56 61 62 54 49 48 51 54 52 53 54 51 51 51 49 48 47 46 46 43 44 44 40 38 39 39 37 36 34 33 32 31 31 31 30 28 26 26 27 27 28 29 29 29 29 28 28 27 27 26 25 26 26 26 25 23 22 21 21 21 19 18 18 18 18 18 18 17 17 17 16 16 15 15 16 17 18 19 20
67 68 69 70 71 70 69 69 64 64 73 70 64 67 68 62 58 56 56 60 59 53 46 40 44 50 52 53 54 51 49 49 48 47 46 45 44 42 43 42 38 38 39 38 37 35 33 32 32 31 30 30 28 24 23 24 25 27 28 28 28 29 28 27 27 25 25 25 25 26 25 25 24 22 21 21 21 20 19 19 19 19 19 18 18 18 17 17 16 15 15 16 17 18 19 19 20
64 64 65 66 68 69 66 66 64 63 73 72 63 66 68 62 58 54 56 63 59 53 45 38 38 44 49 52 53 52 48 48 48 46 44 43 42 42 41 39 37 38 39 38 36 33 32 33 32 31 30 28 24 21 23 25 26 28 28 26 27 28 27 27 25 23 23 25 26 26 26 25 24 22 21 21 21 20 20 19 19 19 19 19 19 18 18 17 17 16 16 17 18 18 19 19 20
63 63 54 47 52 60 64 61 56 59 72 74 67 67 65 61 58 54 57 66 61 54 48 41 40 43 46 49 51 51 46 46 47 45 43 42 42 41 38 36 36 37 38 37 35 33 32 33 31 30 28 26 23 23 26 28 27 27 26 25 26 28 27 26 24 23 24 25 26 26 26 24 22 21 22 22 22 21 20 19 19 19 19 19 19 19 19 18 17 16 16 17 17 18 19 20 22
63 61 45 38 39 41 56 59 47 53 71 74 70 68 64 59 58 54 56 65 62 56 50 45 45 45 45 47 49 48 44 44 45 42 40 39 39 38 35 34 35 36 37 35 33 31 30 30 29 26 25 24 24 27 28 29 28 26 26 25 25 27 26 24 24 24 26 27 26 26 24 22 21 21 22 22 22 21 20 19 19 19 19 20 20 20 19 16 15 15 16 16 17 18 19 21 22
62 62 51 49 44 32 44 54 46 54 71 73 67 64 65 62 58 55 56 63 61 54 49 47 48 47 45 47 48 45 42 41 40 38 36 37 36 34 33 34 36 35 34 34 31 25 24 26 26 24 24 23 23 26 28 27 27 27 26 26 26 27 26 25 25 26 27 27 26 25 23 21 20 20 21 21 21 20 19 19 19 20 21 21 21 21 18 14 13 14 15 16 17 19 20 21 23
62 65 58 53 46 33 36 40 37 48 66 74 67 59 63 65 60 55 56 63 61 52 49 49 49 48 47 48 46 43 41 38 37 35 34 35 35 33 34 35 34 33 32 33 32 26 24 25 25 25 25 24 23 26 27 25 26 27 27 27 28 28 28 28 26 25 26 27 26 24 23 21 20 19 20 20 20 19 19 19 20 22 22 23 22 18 14 12 13 13 14 16 17 19 21 22 23
61 64 60 55 45 32 33 35 28 38 61 73 71 65 60 58 60 59 58 63 61 52 48 50 50 50 50 48 44 42 40 37 35 34 34 34 34 34 34 33 31 31 32 33 32 29 27 26 26 26 26 25 25 27 26 25 25 26 25 25 25 26 27 27 26 26 27 27 26 24 24 22 20 20 20 20 20 19 19 21 22 23 22 20 17 13 11 11 12 13 14 16 18 20 21 22 23
61 59 59 61 48 27 29 38 30 32 50 55 58 67 56 43 54 62 60 61 59 52 48 51 52 51 51 48 44 42 39 36 34 33 33 33 34 34 33 31 30 32 34 33 32 30 28 27 26 26 25 25 26 27 26 25 26 26 25 24 22 22 23 24 26 27 27 26 25 24 25 23 21 21 21 20 20 19 20 21 22 19 15 12 11 10 10 11 12 13 15 17 19 20 21 22 22
60 53 51 62 59 37 26 35 35 29 35 36 41 61 59 46 50 57 59 61 58 52 48 50 53 53 52 49 45 42 38 35 34 33 33 33 33 34 32 29 30 33 33 33 32 30 28 27 25 24 24 24 25 27 26 25 25 25 25 24 23 22 23 23 25 26 26 25 25 25 26 23 20 21 21 20 20 19 19 21 19 14 11 10 10 10 10 11 12 14 16 18 19 20 21 21 22
57 45 40 51 60 54 33 25 33 31 29 31 34 51 63 59 51 50 58 63 57 52 49 49 52 53 53 50 45 42 38 35 35 34 34 34 34 34 31 29 31 33 32 32 31 29 28 26 23 23 23 23 24 25 25 25 25 24 24 24 24 23 23 24 25 26 26 26 26 25 25 23 21 20 20 20 19 18 18 18 15 12 10 10 10 10 10 12 14 15 16 18 19 19 20 21 23
55 41 34 35 47 63 47 23 28 34 31 34 35 40 57 64 55 51 59 61 57 54 50 48 51 53 52 51 47 43 40 38 37 35 34 35 35 34 31 30 31 32 31 30 29 28 27 25 22 22 23 24 24 24 24 25 25 25 25 25 24 23 23 25 26 27 27 27 27 28 27 25 21 20 20 20 18 18 17 16 13 11 11 11 11 11 12 14 15 16 17 18 18 19 21 22 24
53 44 34 28 36 54 50 32 31 32 32 41 42 35 46 60 57 55 59 59 57 54 50 49 50 53 53 51 48 45 43 41 37 34 34 35 35 32 31 31 31 32 30 28 27 27 27 25 22 23 24 24 24 24 25 25 25 24 24 23 22 22 23 25 25 25 25 24 25 27 28 25 20 19 20 18 16 17 17 16 13 12 12 11 12 13 14 15 15 16 17 18 19 20 21 23 24
49 46 36 29 33 38 44 44 33 28 35 45 44 36 42 57 58 54 54 57 58 51 47 49 48 50 51 48 46 45 44 41 37 35 35 35 33 31 31 31 32 32 29 27 27 28 27 25 23 23 24 24 24 24 23 23 23 22 22 23 23 23 24 25 25 23 23 22 21 20 21 19 18 19 18 16 17 18 17 15 13 13 13 12 13 14 15 15 16 16 17 18 19 21 22 24 25
48 46 35 33 35 32 41 45 34 40 51 43 35 36 43 52 56 55 46 46 57 53 47 48 47 47 48 45 44 44 43 41 38 37 37 36 33 31 31 31 32 32 29 28 28 28 27 25 24 23 24 24 23 22 21 21 22 22 23 24 24 24 24 25 25 23 22 21 20 18 17 18 18 18 17 16 17 18 17 15 13 13 13 13 14 15 15 16 16 17 18 19 20 22 23 24 25
52 45 34 34 35 34 43 48 46 59 60 40 29 37 48 50 51 54 47 40 49 52 48 48 46 44 44 44 43 43 42 42 41 40 39 37 34 32 31 31 32 32 30 29 28 28 27 24 24 24 23 24 23 23 22 22 22 22 23 24 24 24 23 23 24 23 22 20 19 19 18 18 18 17 17 17 17 17 16 15 14 14 14 15 16 16 16 17 17 17 18 20 21 23 24 25 26
51 41 33 34 32 34 42 46 51 53 45 37 34 37 50 53 47 50 51 49 51 49 46 47 46 44 44 44 44 43 44 45 44 41 40 39 35 32 31 31 33 32 30 29 28 27 25 24 24 24 24 24 24 23 22 21 21 21 21 22 22 21 21 21 22 23 23 20 19 19 18 17 17 17 17 16 17 17 17 16 16 15 16 16 17 17 17 17 17 18 19 21 22 23 24 25 26
48 40 34 34 28 29 34 36 44 42 30 33 38 38 43 47 49 50 49 53 58 52 46 45 44 44 44 45 46 46 47 47 44 40 40 40 36 33 32 32 33 33 31 29 27 26 25 24 25 26 25 25 25 24 23 21 20 20 20 20 20 20 20 21 23 24 24 21 19 18 17 17 18 18 17 17 18 18 17 17 17 16 17 17 17 17 17 17 18 19 20 21 23 24 25 25 26
44 42 37 32 25 27 29 29 41 42 30 27 36 44 42 40 48 54 49 52 59 54 48 44 42 43 44 45 48 48 49 47 43 41 41 40 36 34 34 33 33 33 30 28 27 26 25 25 27 27 26 26 25 24 23 21 20 19 19 20 21 21 21 22 23 23 22 19 18 18 17 17 18 18 18 19 19 18 17 18 17 17 17 18 18 18 18 18 19 20 21 22 23 24 25 25 26
40 42 39 33 27 30 28 25 34 41 34 29 34 45 45 41 46 51 51 54 55 51 48 43 41 43 44 47 50 49 49 46 42 43 44 41 37 35 34 33 33 32 30 28 27 26 26 26 27 27 27 27 26 24 22 21 21 20 20 21 22 22 22 21 21 20 20 18 17 18 17 16 17 18 19 19 18 18 18 18 18 18 18 18 18 18 18 19 19 20 21 22 23 24 25 25 26
37 37 36 32 27 27 27 27 32 37 35 31 31 40 48 48 46 47 49 52 51 46 43 41 42 44 45 47 49 47 47 45 43 45 45 41 37 35 34 33 33 32 30 29 27 26 26 26 27 28 28 28 27 25 23 21 21 20 20 22 22 22 22 21 20 19 18 18 17 17 16 16 17 18 18 18 18 18 18 18 18 19 19 19 19 19 19 19 20 21 21 22 23 24 25 25 26
36 34 33 31 26 23 24 28 32 31 29 27 24 31 45 51 49 46 45 48 50 45 40 39 42 45 46 45 46 47 46 44 44 45 43 40 38 36 34 33 32 32 30 28 27 26 26 26 27 28 29 28 28 26 23 21 21 20 20 22 22 21 22 22 20 18 18 18 18 17 17 17 17 17 18 18 18 18 18 19 20 20 20 20 20 20 20 20 21 21 21 22 24 24 25 26 26
36 35 32 28 27 26 24 25 29 27 26 27 24 23 34 46 48 46 43 42 45 44 39 39 42 44 45 45 46 46 45 43 44 44 41 39 38 36 34 33 31 31 29 27 26 26 25 25 27 28 28 27 27 26 23 21 21 20 20 22 22 21 21 21 21 19 19 19 18 18 17 17 17 18 18 18 18 18 19 20 21 21 21 21 21 21 21 21 21 21 22 23 24 25 26 26 27
Wind_Direction
209 209 207 207 206 208 214 210 202 198 188 174 215 240 235 219 205 227 225 213 231 233 223 227 233 229 230 228 234 234 233 250 257 249 255 287 296 307 308 312 315 321 334 338 337 336 338 337 337 337 337 340 341 341 340 339 338 339 340 344 348 343 340 337 337 338 351 19 16 7 7 6 8 6 1 1 2 3 4 5 4 3 4 4 2 356 351 348 347 348 350 354 1 4 8 20 15
212 208 207 208 206 210 214 207 204 194 184 209 217 215 235 234 214 228 220 207 222 231 228 231 235 234 234 235 238 242 247 256 261 259 269 288 293 301 302 307 314 318 328 333 334 333 337 337 335 334 333 336 337 338 337 336 335 335 335 339 344 341 337 332 328 330 343 12 8 2 4 3 4 359 356 358 359 1 2 3 5 5 6 7 5 0 355 351 347 347 348 350 352 358 7 17 5
211 209 208 208 207 208 211 205 204 195 183 213 215 212 224 222 215 230 230 221 230 239 237 235 237 239 238 239 241 242 246 249 252 264 275 283 289 295 298 303 312 316 321 328 332 333 337 336 334 332 330 332 334 334 333 333 332 332 332 335 341 339 335 327 320 324 333 355 355 349 354 357 355 350 349 354 357 358 1 1 3 6 7 9 8 5 360 356 350 348 347 345 344 336 329 312 344
208 210 211 209 209 206 210 207 205 197 185 194 210 225 208 190 228 236 234 226 230 235 235 237 238 241 240 240 244 244 245 246 248 267 279 281 286 290 294 300 310 313 314 322 329 334 337 337 336 332 329 330 331 332 331 331 329 329 329 333 339 335 332 321 313 319 321 334 335 332 339 347 344 339 345 350 352 354 359 1 2 4 5 7 7 8 3 360 353 352 348 339 330 307 255 274 324
215 214 214 212 211 207 210 210 205 198 187 189 211 233 215 205 237 237 231 227 227 232 235 238 238 242 244 243 245 247 248 253 261 271 279 280 283 287 291 298 307 310 309 316 325 331 335 337 336 332 329 328 329 330 329 329 328 328 329 333 337 331 328 316 308 314 311 314 313 316 324 330 334 329 337 342 345 350 357 0 1 2 3 4 5 6 3 1 358 352 343 320 287 270 251 272 310
231 220 216 214 214 210 212 211 206 202 190 189 212 241 235 214 235 234 227 228 229 232 237 239 238 243 250 248 247 249 251 257 267 269 276 280 282 284 288 297 304 307 306 311 321 326 333 338 336 333 329 327 327 328 328 328 328 328 329 333 335 328 324 313 306 309 301 300 297 301 310 315 323 322 324 328 335 347 355 359 360 359 359 1 1 3 2 360 357 348 328 286 240 240 244 267 302
237 232 223 216 215 212 216 213 208 208 195 188 206 229 238 224 231 229 225 228 234 234 236 240 238 242 248 249 249 254 256 258 262 265 271 276 278 282 288 297 303 304 303 310 319 323 331 338 337 333 329 327 326 326 326 326 327 328 330 334 333 325 321 311 303 303 293 286 286 288 296 301 311 313 310 314 325 340 352 358 358 357 356 356 358 359 359 357 353 344 328 308 266 239 247 270 297
238 239 237 224 217 217 218 214 210 207 193 190 214 218 226 229 220 213 220 219 226 230 231 237 236 238 246 248 249 251 255 256 259 262 267 271 277 283 290 297 301 300 301 310 317 322 328 335 336 333 329 327 324 324 324 324 326 327 331 335 331 323 318 308 298 297 288 277 277 277 283 289 299 303 299 302 312 329 346 355 356 355 352 351 351 352 353 353 348 340 328 316 298 266 259 275 297
239 237 241 237 227 227 223 214 212 207 195 195 215 221 221 222 203 202 222 220 228 233 232 236 233 234 242 246 246 247 251 255 259 263 266 272 279 284 292 297 298 297 301 309 314 320 323 333 336 332 329 326 323 322 322 322 325 327 330 333 330 322 315 303 293 292 284 272 271 269 273 280 287 293 292 293 301 318 336 348 352 352 350 347 345 345 344 344 342 336 326 317 306 286 272 279 298
240 237 239 244 234 232 231 213 212 209 204 198 202 233 232 225 205 206 222 223 233 234 234 238 235 237 242 246 244 246 251 253 257 261 268 273 279 285 292 296 294 295 301 306 310 315 320 331 335 332 329 326 323 320 319 320 322 325 328 331 328 319 311 299 289 289 281 268 266 263 266 272 278 285 286 289 295 309 325 338 345 346 346 343 340 338 335 331 329 328 323 317 309 296 282 283 296
239 239 238 243 237 231 232 216 212 210 207 202 206 234 235 234 221 220 223 222 234 233 235 239 237 241 242 247 245 244 251 252 255 258 266 271 277 286 293 293 289 293 298 303 306 311 320 330 333 332 330 326 323 319 317 318 320 323 325 328 327 318 309 297 288 286 277 266 263 260 262 267 270 276 281 285 293 303 314 327 335 339 340 339 336 334 330 322 316 315 314 313 308 300 289 286 294
236 240 239 241 240 234 230 220 220 218 211 208 215 230 230 240 227 229 230 227 238 236 239 239 234 239 237 246 248 246 253 253 255 259 264 270 278 288 291 287 285 291 294 300 305 311 321 326 329 332 330 326 321 317 314 315 317 320 322 325 323 317 308 297 290 285 276 267 263 260 260 265 268 272 277 283 290 296 303 314 321 326 331 333 331 329 326 318 309 305 303 304 303 298 290 287 292
235 236 239 241 242 240 232 223 223 226 221 216 220 232 234 241 227 228 231 228 235 235 241 243 237 239 240 246 249 246 252 254 258 263 266 272 279 286 286 280 282 288 290 299 306 312 318 320 326 331 330 324 319 315 310 310 314 317 321 322 319 313 308 299 291 284 277 269 265 262 261 265 269 272 274 279 285 289 293 301 308 313 319 324 325 324 321 317 310 303 298 296 295 292 288 286 290
236 234 236 240 241 243 238 230 220 221 231 224 225 234 232 233 227 224 227 228 234 234 234 241 238 237 244 248 250 248 250 257 261 265 269 274 279 282 280 276 279 284 289 297 305 310 313 318 325 329 329 323 317 312 307 306 309 314 317 316 311 307 305 299 290 282 275 269 267 264 262 265 269 273 275 277 280 283 286 291 296 300 306 313 318 318 317 315 312 306 300 294 292 290 286 284 285
237 235 235 236 237 239 238 234 226 222 228 228 234 243 236 229 228 226 226 228 231 235 234 238 241 235 243 248 248 248 249 258 261 265 270 273 278 280 275 273 277 283 290 297 303 306 310 318 323 327 327 322 315 309 304 301 302 308 310 305 301 301 302 298 289 280 273 269 267 265 263 265 268 273 276 277 277 279 281 286 289 293 298 305 311 314 315 314 312 309 304 297 293 292 290 287 285
237 236 235 234 235 235 236 235 231 230 225 222 235 246 244 235 231 229 230 230 226 234 236 236 240 237 241 247 248 250 254 260 262 264 268 272 276 275 272 272 277 283 290 296 302 304 309 317 321 325 324 320 314 306 300 296 297 302 301 295 293 296 299 297 289 280 274 270 267 266 264 264 267 270 273 276 276 277 278 281 285 288 291 297 304 310 314 313 313 311 307 301 295 294 294 290 286
238 237 236 236 235 234 235 233 229 234 228 223 229 229 236 235 231 232 233 233 228 235 240 235 239 241 243 246 248 254 260 263 264 265 266 269 270 268 269 271 275 282 289 295 300 303 309 315 319 323 322 318 311 305 299 293 292 294 293 288 287 291 294 294 289 282 277 273 269 267 265 264 265 267 269 271 272 273 274 275 277 280 282 287 294 302 309 311 312 311 309 303 296 293 293 289 283
238 237 236 236 234 232 233 232 228 229 229 229 232 230 234 231 232 239 239 238 234 237 243 239 240 244 245 247 250 256 261 263 263 263 262 262 261 262 266 270 275 280 286 293 298 302 308 313 318 321 318 314 311 309 302 295 292 291 286 282 284 287 288 289 287 284 280 275 272 269 266 265 265 266 265 266 266 267 268 269 270 272 273 275 281 289 298 304 306 306 305 301 294 288 285 282 278
237 237 236 235 234 234 233 234 231 227 227 230 235 242 248 236 226 238 241 239 235 233 241 242 241 245 247 250 252 253 256 258 259 258 256 254 254 259 264 268 274 280 286 291 295 300 307 312 316 317 313 309 311 317 315 313 306 292 282 279 283 284 285 285 283 281 279 276 274 269 267 267 266 265 264 264 265 266 268 269 270 270 269 269 272 278 285 291 296 296 296 294 288 281 278 279 277
235 235 234 232 233 236 235 235 234 230 229 229 230 240 253 241 220 226 235 233 234 232 237 239 239 243 246 250 249 247 249 252 254 253 251 252 254 258 262 266 271 278 283 288 293 299 307 311 314 313 307 301 302 315 321 327 321 303 290 284 284 285 285 283 280 278 277 276 273 269 268 267 268 266 265 264 266 269 271 273 273 272 270 269 269 271 275 280 285 286 287 287 284 279 276 275 274
234 234 232 230 233 237 236 235 236 234 232 229 230 234 249 245 222 224 235 233 232 233 234 237 242 244 243 246 247 245 248 251 249 248 248 250 253 256 258 263 268 275 280 285 292 299 307 309 310 307 300 295 290 294 302 309 312 308 302 293 287 286 284 282 280 278 275 274 271 269 268 267 269 269 268 269 271 273 274 276 275 274 274 273 270 271 273 275 278 281 282 283 281 279 276 273 271
234 234 231 230 233 235 236 237 237 237 235 232 234 230 233 241 229 228 238 237 231 232 240 246 249 249 242 240 243 245 248 249 248 246 247 249 251 254 257 262 268 273 278 285 292 299 305 305 304 300 294 292 288 283 282 287 294 300 301 296 290 284 282 282 280 277 273 270 268 267 267 268 270 270 270 271 273 274 275 277 276 277 279 279 277 278 277 274 275 277 279 280 279 277 273 270 268
235 233 231 230 232 235 237 238 238 239 238 234 236 236 230 235 238 235 240 241 234 228 233 234 230 237 239 235 237 244 247 247 248 247 248 250 253 256 260 264 269 273 278 286 293 298 302 301 298 295 290 290 289 284 280 281 286 291 294 293 290 282 279 280 279 275 270 267 265 264 266 268 270 270 271 273 274 276 277 277 276 275 274 275 276 277 279 277 275 276 277 278 278 277 272 268 267
234 232 230 230 231 235 236 237 238 239 241 236 233 239 234 232 240 241 238 243 241 229 230 234 230 235 244 245 243 246 248 248 248 249 250 253 255 258 261 265 269 274 281 287 292 297 299 296 294 291 288 288 287 285 282 281 283 284 285 288 287 281 277 276 275 273 268 265 264 264 266 267 269 271 274 276 279 281 281 279 278 276 271 270 270 271 277 279 278 278 279 277 275 273 273 270 268
232 231 229 230 232 235 236 237 238 237 240 237 230 231 231 230 238 243 237 239 243 233 234 240 237 240 248 252 251 249 249 249 249 250 252 254 255 258 261 266 270 276 282 287 291 296 296 292 291 288 286 286 286 284 282 281 280 279 279 282 283 280 275 272 272 271 267 264 264 265 268 269 271 273 276 279 281 282 282 281 280 278 276 274 273 271 273 274 274 275 277 276 274 270 272 275 274
231 231 230 230 231 234 237 237 236 236 238 239 236 234 236 236 238 242 238 236 239 233 237 242 240 242 245 245 248 248 249 250 250 251 252 254 256 259 262 266 271 277 282 286 290 294 292 289 288 287 285 284 284 282 281 278 275 275 275 277 279 278 274 271 270 268 266 264 265 267 269 271 273 276 278 279 280 281 280 281 281 281 280 279 280 278 276 273 271 271 272 275 276 273 272 276 277
231 231 231 231 232 233 237 237 234 235 237 238 240 238 238 240 239 239 239 239 239 231 237 243 240 238 240 241 244 247 249 250 251 253 254 255 257 259 262 267 272 277 281 285 289 291 289 286 286 285 284 283 282 280 278 275 272 272 272 273 274 274 272 270 269 268 266 265 266 268 270 273 276 278 280 279 280 281 282 283 284 285 285 284 284 283 280 277 272 269 268 271 274 274 273 275 277
229 230 231 231 232 230 233 237 234 233 235 237 240 239 237 240 239 236 237 241 238 232 239 244 240 237 238 241 244 246 248 249 250 253 255 256 257 259 263 268 273 277 280 283 287 288 284 283 284 283 282 281 280 278 276 273 270 269 268 270 271 271 270 269 269 268 267 267 268 270 271 273 277 280 279 279 280 283 285 285 286 286 286 287 287 286 285 282 277 271 268 269 271 273 275 278 280
228 228 230 230 231 230 229 234 233 230 234 236 240 242 238 236 236 233 236 241 237 234 240 243 242 240 239 241 243 245 246 247 248 251 253 255 257 260 265 269 273 276 278 282 285 284 280 281 283 282 281 280 278 276 274 272 268 265 265 266 267 268 269 269 268 269 269 271 273 273 273 275 279 280 278 279 283 285 287 287 287 287 288 289 289 289 287 285 282 275 270 268 269 272 276 279 281
228 228 230 230 231 230 228 232 234 231 232 235 239 242 237 232 232 234 238 240 238 237 238 240 242 242 240 240 241 243 244 246 247 250 252 255 257 261 265 268 272 274 277 282 283 280 278 280 281 280 279 278 276 274 272 270 267 264 263 263 264 265 267 267 267 269 272 274 277 276 274 277 278 278 278 282 286 287 288 288 289 289 290 290 290 289 288 286 283 276 271 268 268 270 275 279 281
228 227 229 231 231 230 229 232 234 232 232 234 237 239 235 231 232 236 240 240 239 239 238 239 241 241 241 240 240 242 243 245 247 249 252 255 258 261 265 268 271 273 277 280 279 277 278 280 280 277 277 275 273 271 270 269 267 264 263 263 263 265 265 264 266 270 273 276 278 277 276 277 277 277 281 285 288 289 289 290 291 290 289 288 288 288 287 286 281 275 272 271 271 272 275 278 280
227 226 227 230 230 229 230 233 234 232 233 235 236 237 234 232 234 237 241 241 239 240 238 239 241 240 241 241 240 242 243 245 248 250 253 256 260 263 266 269 270 273 277 278 276 276 278 278 277 276 274 272 270 268 268 268 267 265 264 263 263 263 262 262 266 270 274 276 276 277 279 277 274 278 284 287 290 292 290 289 288 287 287 286 285 286 285 284 279 274 273 273 273 274 276 277 279
225 225 226 229 229 228 229 233 234 232 233 236 236 235 234 233 235 238 242 243 241 239 236 238 241 239 240 241 241 242 243 245 248 251 254 257 260 263 265 267 270 272 275 276 274 275 276 275 275 274 271 268 267 267 267 267 265 264 263 263 261 260 260 262 267 270 274 276 275 276 277 271 273 282 287 290 293 292 290 288 286 286 285 284 283 284 285 283 277 271 269 271 273 275 276 278 281
225 225 226 228 229 228 229 233 236 234 232 235 236 234 234 234 234 237 242 245 243 239 235 236 240 240 239 241 241 241 244 244 247 250 253 256 258 261 264 266 268 271 273 272 272 273 273 273 273 271 267 265 265 266 266 265 263 262 261 260 258 257 258 262 266 270 272 273 274 274 270 269 279 287 289 292 292 289 286 284 285 286 285 283 282 284 284 280 274 269 267 270 273 275 277 279 281
225 226 225 227 229 229 228 231 236 238 233 232 236 235 233 232 234 236 239 244 244 240 236 234 238 240 239 242 243 241 243 245 246 249 251 254 256 259 262 264 266 269 270 268 269 270 269 270 269 265 263 263 264 265 264 263 262 260 258 256 256 255 257 261 265 268 269 270 272 272 271 275 282 286 289 291 288 285 284 284 285 286 285 284 282 282 281 275 270 267 268 270 273 275 276 278 279
225 226 225 226 228 229 229 228 232 240 237 231 233 236 235 231 231 234 237 240 242 241 238 233 234 238 238 242 245 241 242 245 246 248 250 252 255 257 259 262 265 266 266 265 265 266 266 265 262 260 261 262 263 264 262 262 260 256 255 254 254 254 256 260 263 265 267 268 270 272 274 277 279 283 287 288 286 285 284 284 284 284 284 283 281 279 275 270 266 264 266 269 272 274 276 278 280
223 225 225 225 227 228 230 230 228 236 240 233 229 234 237 233 229 231 236 238 238 237 236 230 228 235 237 240 245 243 243 246 247 248 249 251 254 255 258 260 262 262 261 262 262 262 260 257 255 257 259 260 261 259 257 258 254 250 253 254 253 255 257 260 262 265 267 267 266 269 273 275 277 281 284 287 289 286 282 282 283 283 284 282 279 275 270 265 261 261 265 269 273 275 276 279 282
219 221 223 225 227 226 227 231 228 232 240 236 230 233 236 235 231 228 234 237 235 233 232 229 229 234 236 238 244 245 243 245 247 248 248 251 253 253 256 257 257 257 258 258 258 256 252 250 252 255 256 257 258 254 251 252 249 250 256 255 253 254 256 258 261 265 267 265 266 268 271 273 277 281 282 286 288 283 280 281 283 284 283 280 275 270 265 261 259 262 267 271 274 276 279 283 286
217 217 219 224 226 226 225 228 229 230 238 238 233 234 234 234 233 228 233 237 235 233 233 234 236 238 237 238 242 244 243 244 246 247 248 248 250 251 251 252 251 252 253 253 252 247 244 247 251 253 255 257 259 257 256 255 253 255 258 256 254 253 252 254 260 265 267 266 266 267 270 274 278 280 281 284 284 280 280 282 284 283 280 276 273 269 265 262 262 266 271 275 278 280 284 286 288
215 213 215 216 214 219 221 221 222 226 235 237 235 237 235 233 235 230 233 238 236 233 233 234 237 237 237 236 239 242 242 242 244 244 244 244 245 246 245 245 245 247 249 249 247 244 246 252 255 255 257 259 261 262 263 264 261 258 258 258 257 254 251 252 258 263 265 265 264 266 270 275 276 278 280 282 280 279 279 281 281 278 275 273 270 267 266 265 266 270 274 277 280 283 286 289 293
211 209 214 214 208 212 218 218 219 224 232 235 233 237 238 234 233 230 232 238 237 232 229 230 233 234 234 234 235 237 237 237 238 239 238 238 239 239 238 239 241 243 244 244 246 252 254 255 257 256 255 257 259 261 265 268 263 256 257 258 256 254 252 252 257 261 263 263 265 269 272 272 272 273 277 279 278 278 278 278 277 274 270 267 265 264 265 266 269 272 275 277 281 286 291 295 299
210 209 213 213 209 210 211 211 216 222 230 234 230 230 235 235 232 230 231 236 236 231 226 227 230 231 232 233 233 233 233 231 232 233 231 232 233 232 233 235 238 239 238 238 242 248 250 249 252 253 252 255 261 264 266 267 260 253 257 260 257 255 254 253 255 259 262 265 267 270 269 267 266 269 275 279 278 278 277 276 274 270 266 264 264 264 264 266 267 270 275 280 286 292 296 301 305
209 209 213 210 206 209 206 201 206 220 228 233 232 228 230 236 235 230 230 235 235 230 226 226 228 231 232 232 232 231 232 230 229 230 229 229 229 230 232 234 233 232 233 236 237 242 247 249 252 253 254 257 261 265 267 266 259 254 260 263 258 256 256 255 254 258 265 268 266 265 263 261 263 267 275 278 278 276 272 271 271 271 271 269 265 260 257 261 266 272 279 286 292 296 301 305 309
207 209 213 209 203 206 208 205 206 221 227 230 235 231 226 231 236 232 230 235 237 231 227 227 226 229 232 231 231 230 230 230 230 230 228 228 229 230 232 230 227 227 231 235 236 240 246 250 253 256 257 258 260 264 268 266 258 255 258 261 260 260 260 258 258 263 267 266 262 259 256 258 263 267 273 276 276 273 269 270 274 276 277 270 258 253 256 264 271 278 285 291 296 300 305 308 311
204 207 214 210 207 206 204 207 209 217 222 220 231 232 223 222 232 234 232 234 236 231 226 228 227 228 231 230 230 230 229 228 230 230 228 228 228 230 231 225 222 225 229 234 238 241 245 249 253 256 258 260 260 262 264 264 260 258 258 260 262 262 262 261 262 267 268 261 260 259 252 254 263 267 270 273 273 271 269 269 270 268 265 260 258 260 265 272 277 282 289 294 299 303 307 310 312
199 201 211 210 210 208 201 205 207 212 219 213 224 232 226 222 226 231 232 231 232 231 226 227 229 228 230 231 230 231 230 227 228 229 228 227 227 229 228 221 220 225 228 233 238 242 246 249 251 255 259 262 263 261 260 260 261 262 261 260 262 263 263 263 263 269 267 258 259 260 251 252 262 266 269 273 271 266 266 269 268 263 260 262 264 265 269 275 279 284 291 296 300 304 307 311 315
198 199 205 207 209 208 208 206 202 211 222 214 217 229 227 224 223 227 232 230 229 231 228 225 228 229 229 230 230 230 230 228 226 226 227 226 226 227 226 221 222 227 230 233 239 245 249 252 253 255 259 261 264 263 259 260 262 262 262 263 264 265 264 264 264 267 266 259 258 259 254 253 259 264 269 272 266 258 261 270 274 267 261 261 261 263 269 274 279 286 293 297 300 304 309 313 316
201 199 197 203 207 207 210 207 197 208 223 218 214 220 226 225 222 225 231 232 231 230 229 226 227 228 228 228 228 228 229 228 226 226 226 226 226 226 225 222 223 228 232 235 241 247 251 254 255 256 258 261 263 262 260 260 261 262 264 265 266 265 265 266 267 266 264 262 262 262 258 253 254 263 268 266 259 255 256 261 264 260 256 255 257 262 269 275 281 287 292 296 300 306 310 314 315
203 196 192 199 202 203 207 206 202 208 217 220 214 212 223 225 221 222 228 234 233 227 228 229 228 229 229 228 229 229 230 228 226 227 226 226 225 223 223 221 222 227 232 235 240 246 251 254 256 258 260 262 264 263 261 261 261 263 266 267 267 266 266 267 268 267 264 264 267 265 258 251 254 264 264 256 253 255 256 254 251 249 249 250 256 263 270 276 281 286 291 296 302 307 310 312 314
199 190 191 196 194 196 201 201 205 212 213 216 211 208 220 224 221 220 221 233 235 229 227 229 228 229 230 229 229 229 230 228 226 226 226 225 223 220 221 220 221 226 230 233 238 245 250 253 257 259 261 264 266 264 259 258 262 266 267 268 267 267 267 266 266 265 264 264 266 264 257 255 259 262 257 250 251 257 259 254 245 242 245 250 257 264 270 275 280 285 292 298 302 306 308 310 312
197 187 190 194 191 197 201 200 207 214 214 210 204 209 218 219 221 220 216 224 232 228 226 227 226 227 226 226 227 226 227 226 224 224 224 224 221 219 219 218 221 226 228 231 236 243 249 253 259 260 261 264 266 264 260 262 267 269 268 267 268 267 266 266 264 262 260 262 265 264 262 261 261 258 255 251 251 256 256 248 239 238 244 251 258 263 269 274 279 286 293 298 302 305 307 309 311
197 186 191 192 192 201 204 204 208 212 213 207 204 214 221 219 220 221 217 222 228 226 224 224 223 223 221 221 223 223 223 223 222 222 222 223 221 218 217 217 221 226 228 231 236 242 249 254 258 260 261 264 267 267 267 270 271 269 268 267 268 269 268 267 265 261 259 260 262 263 263 263 259 255 254 254 255 255 248 240 236 238 245 252 258 263 268 274 281 289 295 299 302 305 307 309 311
195 188 191 188 188 200 202 204 208 208 208 208 208 214 219 219 222 221 217 223 229 228 224 224 222 220 218 218 219 220 221 220 218 219 222 223 219 217 217 217 222 227 230 233 237 242 247 252 256 258 260 264 267 269 272 274 272 268 266 266 267 270 272 269 266 261 257 255 259 263 264 261 256 252 254 257 257 252 243 238 238 241 248 254 258 263 269 277 284 290 296 300 303 306 308 309 312
193 192 188 179 184 199 201 202 207 207 203 205 211 212 212 214 219 220 217 220 227 226 223 223 221 219 218 217 219 219 219 218 215 216 220 221 218 216 217 218 222 228 231 234 237 241 244 248 253 256 259 263 265 269 272 274 272 267 266 268 271 272 272 268 263 258 255 255 259 263 261 258 254 254 258 259 254 246 240 239 240 244 251 255 258 264 271 279 286 292 297 301 305 307 309 311 313
192 196 187 178 186 197 198 196 203 207 201 199 211 214 214 214 217 219 218 220 226 225 223 221 220 219 217 217 219 219 219 217 213 215 220 221 218 217 217 218 222 228 232 235 238 241 244 247 251 255 258 261 265 268 271 271 268 266 267 269 272 272 270 266 258 253 254 258 260 258 257 257 257 257 259 254 245 240 238 240 244 249 253 255 259 266 273 280 287 294 298 302 306 309 312 313 314
188 193 188 185 188 192 196 194 197 204 200 197 210 217 216 216 218 220 220 223 227 227 223 220 219 218 216 218 219 218 219 216 213 216 220 220 219 218 219 219 222 228 233 236 238 242 245 248 251 254 257 261 265 268 270 267 265 265 265 266 269 269 267 263 257 251 254 259 259 259 260 260 258 256 252 244 237 236 239 244 250 252 253 256 261 267 274 282 288 294 299 303 308 311 313 314 315
182 184 185 191 193 189 193 194 195 199 196 193 205 217 217 215 217 219 220 223 226 226 222 218 219 218 216 218 218 218 219 216 215 218 219 220 220 219 220 220 223 229 233 236 240 244 248 250 252 254 256 261 266 270 269 266 264 264 263 264 266 266 264 262 257 252 255 260 260 261 261 259 255 250 244 238 236 239 244 249 252 252 253 256 261 268 275 282 289 294 299 304 309 312 314 315 316
185 185 181 186 189 185 187 194 194 193 195 198 201 210 216 215 216 219 222 224 224 222 219 217 219 218 216 216 216 216 217 216 216 219 219 220 221 221 222 223 224 229 233 236 241 245 248 251 252 253 256 261 266 269 268 265 264 264 262 263 265 265 263 261 258 256 260 262 260 259 258 254 249 244 240 238 240 245 250 252 253 253 254 257 262 269 276 283 290 295 300 305 309 313 314 316 317